Temperature
4 4 4 5 5 4 4 4 4 4 4 5 6 5 7 8 8 8 8 8 8 8 8 8 8 8 7 7 7 7 7 6 6 6 6 6 6 5 5 5 5 5 4 4
3 4 4 4 4 4 4 4 4 4 5 5 6 6 6 7 7 7 7 7 7 7 7 7 7 7 7 7 7 6 6 6 6 6 6 6 5 5 5 5 5 4 4 4
3 3 4 4 4 4 4 3 4 4 5 5 5 5 6 7 7 7 7 7 7 7 7 7 7 7 6 6 6 6 6 6 6 6 5 5 5 5 5 4 4 4 4 4
3 3 5 6 5 4 4 4 4 4 5 5 5 6 7 7 7 7 7 7 7 6 6 6 6 6 6 6 6 6 6 6 5 5 5 5 4 4 4 4 4 4 3 3
2 3 3 5 5 4 4 5 4 4 4 5 5 5 6 7 7 7 6 6 6 6 6 6 6 5 5 5 5 5 5 5 5 5 5 4 4 4 4 3 3 3 3 3
2 3 5 7 6 5 5 5 5 4 4 4 4 3 5 7 6 6 6 6 6 5 5 5 5 5 5 5 5 5 5 4 4 4 4 4 4 3 3 3 3 3 3 2
2 3 3 4 5 5 5 6 6 6 5 5 4 5 6 6 6 6 5 5 5 5 5 5 5 4 4 4 4 4 4 4 4 4 3 3 3 3 3 3 2 2 2 2
2 2 4 4 4 4 5 6 6 6 6 6 6 6 6 6 5 5 5 5 5 4 4 4 4 4 4 4 4 4 3 3 3 3 3 3 3 2 2 2 2 2 2 1
2 4 5 5 5 6 6 6 6 6 6 6 5 5 5 5 5 4 4 4 4 4 4 4 4 4 4 3 3 3 3 3 3 3 3 2 2 2 2 2 1 1 1 1
1 2 3 5 6 6 6 6 6 6 5 5 5 5 4 4 4 4 4 4 4 4 4 4 3 3 3 3 3 3 3 3 2 2 2 2 2 1 1 1 1 1 1 0
1 2 3 5 6 6 6 6 5 5 5 5 4 4 4 4 4 3 3 3 3 3 3 3 3 3 3 3 2 2 2 2 2 2 2 1 1 1 1 1 0 0 -0 -0
3 4 3 5 6 6 5 5 5 5 4 4 4 4 3 3 3 3 3 3 3 3 3 3 3 3 2 2 2 2 2 2 1 1 1 1 1 1 1 0 -0 -1 -1 -1
5 5 5 5 5 5 4 4 4 4 4 4 3 3 3 3 3 3 3 2 2 2 2 2 2 2 2 2 2 1 1 1 1 1 1 0 0 -0 -0 0 -0 -1 -1 -1
4 4 4 4 4 4 4 3 3 3 3 3 3 3 2 2 2 2 2 2 2 2 2 2 2 2 2 1 1 1 1 1 1 0 0 -0 -0 -1 -1 -1 -1 -1 -1 -2
3 3 3 3 3 3 3 3 2 2 2 2 2 2 2 2 2 2 2 1 1 1 1 1 1 2 1 1 1 1 1 0 0 0 -0 -0 -1 -1 -1 -2 -2 -2 -2 -2
2 2 2 2 2 2 2 2 2 2 2 2 2 1 1 1 1 1 1 1 1 1 1 1 1 1 1 1 0 0 0 0 -0 -0 -0 -1 -1 -1 -2 -2 -2 -3 -3 -3
1 1 1 2 2 2 2 2 1 1 1 1 1 1 1 1 1 1 1 1 1 1 1 1 1 1 0 0 0 -0 -0 -0 -0 -1 -1 -1 -1 -2 -2 -3 -3 -3 -3 -3
1 1 1 1 1 1 1 1 1 1 1 1 1 1 0 0 0 1 0 0 0 1 1 0 0 0 -0 -0 -0 -1 -1 -1 -1 -1 -1 -1 -2 -2 -3 -3 -3 -3 -3 -3
1 1 1 1 1 1 1 1 1 1 1 1 0 0 0 0 0 0 -0 -0 0 0 0 0 -0 -0 -0 -1 -1 -1 -1 -1 -1 -1 -2 -2 -2 -2 -3 -3 -3 -3 -4 -4
1 1 1 1 0 0 0 1 0 0 0 0 0 -0 -0 -0 -0 -1 -1 -0 -0 -0 -0 -0 -1 -1 -1 -1 -1 -1 -1 -1 -2 -2 -2 -2 -2 -3 -3 -3 -4 -4 -4 -4
1 0 0 0 -0 -0 -0 -0 -0 -0 -0 -0 -0 -1 -1 -1 -1 -1 -1 -1 -0 -0 -1 -1 -1 -1 -1 -1 -2 -2 -2 -2 -2 -2 -2 -2 -3 -3 -3 -4 -4 -4 -4 -4
-0 -0 -0 -0 -0 -0 -0 -0 -0 -1 -1 -1 -1 -1 -1 -1 -1 -1 -1 -1 -1 -1 -1 -1 -1 -1 -2 -2 -2 -2 -2 -2 -2 -2 -2 -3 -3 -3 -3 -4 -4 -4 -4 -5
-1 -1 -1 -1 -1 -1 -1 -1 -1 -1 -1 -1 -1 -1 -1 -1 -1 -2 -1 -1 -1 -2 -2 -2 -2 -2 -2 -2 -2 -2 -2 -2 -2 -3 -3 -3 -3 -3 -4 -4 -4 -4 -4 -5
-1 -1 -1 -1 -1 -1 -1 -1 -1 -1 -1 -1 -1 -2 -2 -2 -2 -2 -2 -2 -2 -2 -2 -2 -2 -2 -3 -3 -2 -3 -3 -3 -3 -3 -3 -3 -3 -4 -4 -4 -4 -4 -5 -5
-1 -1 -1 -1 -2 -2 -2 -2 -2 -2 -2 -2 -2 -2 -2 -2 -2 -2 -2 -2 -2 -3 -3 -3 -3 -3 -3 -3 -3 -3 -3 -3 -3 -3 -3 -4 -4 -4 -4 -4 -4 -5 -5 -5
-2 -2 -2 -2 -2 -2 -2 -2 -2 -2 -2 -2 -2 -2 -2 -3 -3 -3 -3 -3 -3 -3 -3 -3 -3 -3 -3 -3 -3 -3 -3 -3 -3 -4 -4 -4 -4 -4 -4 -4 -5 -5 -5 -5
-2 -2 -2 -2 -2 -2 -2 -3 -3 -3 -3 -3 -3 -3 -3 -3 -3 -3 -3 -3 -3 -3 -3 -3 -3 -3 -3 -3 -3 -3 -4 -4 -4 -4 -4 -4 -4 -4 -4 -5 -5 -5 -5 -5
Wind_Speed
6 6 5 7 8 8 9 9 9 9 9 11 8 6 5 4 4 3 3 3 3 3 3 4 4 4 4 5 4 3 4 5 6 5 5 5 5 5 5 5 6 5 5 5
4 4 5 8 12 11 11 9 11 10 12 10 7 5 5 5 5 4 4 4 4 4 4 5 5 5 5 5 4 3 4 5 5 4 4 5 5 5 5 5 5 4 5 5
4 5 6 9 10 12 8 8 9 12 11 4 4 5 6 6 6 6 6 5 5 5 5 5 5 5 5 5 4 3 4 5 4 4 4 5 4 4 5 5 4 5 5 5
3 3 7 7 2 7 8 8 10 8 7 6 6 5 6 6 6 6 5 5 5 5 5 5 4 4 4 3 3 3 4 5 4 4 5 4 4 5 5 4 4 5 5 6
2 4 9 9 4 5 6 7 8 10 9 6 3 2 5 4 5 5 5 5 5 5 5 4 5 4 3 3 3 4 5 5 5 4 5 4 5 5 5 4 5 5 4 5
4 4 7 5 1 3 3 6 4 6 6 4 3 1 5 3 3 4 4 4 5 4 4 5 5 3 3 4 4 5 6 6 5 4 5 6 6 5 4 4 5 5 5 5
7 8 9 6 2 4 3 6 2 5 5 5 6 6 4 3 3 4 4 5 4 4 4 5 4 3 4 5 6 6 5 5 5 5 5 5 5 4 4 4 4 4 5 5
6 7 10 4 6 6 7 2 2 4 4 5 6 6 5 4 5 5 5 5 4 4 5 5 4 3 5 7 6 5 4 5 5 4 4 3 4 4 3 3 4 4 4 5
10 10 4 5 7 5 3 4 4 4 5 5 5 6 6 6 6 5 6 5 4 4 6 6 4 4 6 7 5 4 4 5 5 4 4 3 4 4 3 3 4 4 4 5
7 9 8 7 7 6 6 6 6 5 5 5 6 7 7 7 6 6 5 5 4 4 6 7 5 5 6 6 5 4 5 5 4 4 4 3 3 4 4 4 4 4 5 6
8 8 7 7 8 8 6 6 6 6 5 6 7 7 7 6 7 6 6 5 4 5 6 8 6 6 6 5 4 4 5 5 4 4 4 4 4 4 5 6 6 6 6 5
9 8 7 7 6 6 7 7 7 7 7 6 7 8 7 7 7 6 6 5 5 6 6 7 6 7 6 5 4 4 5 5 4 4 4 4 4 5 7 9 11 12 11 9
9 6 7 8 6 5 6 7 7 8 8 8 7 7 7 6 6 5 6 6 6 7 7 7 6 7 7 5 4 5 5 5 4 4 4 4 4 5 6 6 8 10 11 12
8 6 7 7 7 6 6 7 6 6 7 6 6 5 5 5 5 6 7 7 6 6 7 7 7 8 7 5 5 5 6 6 6 5 5 5 5 5 5 5 6 5 7 10
8 8 9 7 6 6 5 4 5 6 6 6 5 5 6 6 7 7 7 6 5 6 7 7 8 9 6 5 5 6 5 5 5 5 5 5 5 5 5 6 6 6 5 5
5 6 7 7 8 7 5 6 6 7 7 6 6 6 7 7 7 7 7 5 5 7 8 7 9 8 6 5 6 5 5 8 6 5 5 5 5 5 5 6 6 6 6 5
5 6 6 7 8 7 7 7 8 8 7 7 8 7 6 5 6 7 7 6 7 8 9 9 9 8 6 6 6 5 5 6 7 5 5 5 5 6 6 6 6 7 7 7
9 9 8 7 7 8 7 7 7 7 7 8 6 5 5 6 7 8 8 6 6 8 9 9 9 8 7 6 6 5 5 5 5 5 5 5 6 6 6 6 7 8 7 7
6 6 6 6 6 5 6 7 7 6 7 6 6 6 7 7 7 8 6 6 7 10 8 7 8 7 7 7 7 5 5 5 5 5 5 8 7 6 6 7 7 7 7 6
4 4 4 4 4 4 5 5 5 5 5 5 5 6 7 7 7 7 6 8 8 8 7 8 7 7 7 7 7 5 5 6 6 6 6 6 6 6 6 7 7 7 7 7
4 4 4 4 5 5 5 5 4 5 6 5 5 7 8 8 6 6 6 8 9 7 7 10 7 6 6 6 7 5 6 6 6 6 6 6 7 7 7 7 7 7 7 7
4 4 5 5 5 5 5 4 5 5 5 6 6 7 7 8 8 7 8 9 9 10 7 6 6 8 9 9 5 6 6 7 6 6 6 7 7 7 7 7 7 7 7 6
5 5 5 5 5 5 5 5 5 5 6 7 7 8 8 8 6 6 9 6 6 9 7 6 9 12 13 8 5 6 7 7 7 7 7 7 7 7 7 7 7 7 6 6
5 5 5 5 4 4 7 8 6 6 7 8 8 8 8 7 7 7 8 11 12 12 8 10 14 14 13 6 5 6 6 7 7 7 7 7 7 6 7 7 7 6 6 6
6 6 6 5 5 6 7 7 7 7 7 7 9 9 8 7 8 8 7 8 12 12 8 10 14 14 8 6 6 6 6 7 7 7 7 7 6 6 6 6 6 6 6 6
6 6 6 7 7 7 6 6 6 7 6 7 8 7 6 6 7 8 7 8 10 11 9 7 7 8 6 6 7 7 7 7 8 7 7 7 7 7 6 6 7 6 6 5
6 6 6 6 7 7 6 6 7 8 7 8 9 8 7 6 6 7 8 7 7 7 7 7 6 6 6 6 6 7 6 6 6 6 6 6 6 6 6 7 6 5 5 5
Wind_Direction
259 268 258 248 240 213 210 210 217 238 238 256 255 251 256 259 265 282 297 305 296 291 291 295 295 289 279 274 269 254 247 249 252 255 250 247 245 242 238 233 233 229 229 236
288 273 261 262 248 230 229 227 234 251 264 256 252 240 253 253 246 253 266 274 280 284 288 289 289 289 288 283 278 258 251 256 261 261 257 251 248 244 241 240 237 229 230 233
282 310 321 270 236 208 208 209 199 226 242 244 238 238 241 243 239 241 250 259 266 271 269 270 274 275 275 275 278 262 259 264 263 257 257 254 248 242 242 241 234 236 236 233
283 346 254 250 207 188 206 232 214 228 242 238 238 248 250 235 224 238 246 255 264 267 270 272 271 276 274 275 273 265 265 268 265 257 256 257 248 245 245 239 236 240 243 238
208 265 276 288 241 178 193 261 219 221 242 250 259 326 294 245 214 229 241 250 254 257 261 272 279 281 281 285 284 276 271 269 265 255 255 254 251 251 246 240 242 241 244 240
194 237 254 258 215 175 133 279 234 200 220 215 140 245 269 261 248 258 264 263 262 268 271 274 278 279 273 278 277 271 267 266 262 252 247 248 249 251 246 238 243 244 248 242
216 240 265 257 211 131 185 255 216 191 202 186 199 222 250 280 273 266 271 273 267 264 266 267 273 267 266 272 269 269 271 269 264 255 251 250 251 248 248 244 246 246 253 254
190 217 253 210 145 188 227 265 200 200 206 210 233 258 271 276 274 276 279 276 268 262 270 272 263 248 262 268 269 276 275 272 269 265 261 256 249 254 247 238 244 250 255 267
200 220 253 195 209 237 228 227 226 219 229 226 243 260 268 270 269 272 271 271 267 260 275 281 265 237 255 267 274 279 278 275 274 273 266 255 243 250 254 239 240 250 247 259
246 261 258 252 249 251 231 229 237 231 231 225 239 256 265 269 270 269 269 269 268 270 275 281 276 257 251 267 273 269 271 274 273 271 273 265 249 241 240 239 242 246 248 254
249 267 281 263 238 238 237 239 243 245 239 232 236 253 255 259 263 262 265 266 262 262 267 274 279 273 267 264 259 261 266 267 267 261 261 262 255 243 240 236 233 240 244 243
239 228 219 252 251 230 227 237 240 245 256 247 231 243 250 254 256 258 262 266 270 267 266 272 275 276 274 262 247 249 263 263 258 257 258 257 265 276 257 251 260 256 252 250
240 243 236 257 256 235 233 239 242 239 240 248 247 241 244 254 257 257 262 263 262 265 267 272 275 277 275 263 246 241 249 256 255 250 250 251 254 262 281 282 265 261 258 257
242 247 257 251 251 249 245 249 248 248 245 243 247 249 250 255 262 262 262 263 265 268 270 269 271 273 271 260 249 249 250 252 249 246 243 244 245 248 254 268 283 279 265 261
241 230 242 260 262 258 252 247 246 253 257 257 248 246 249 254 261 265 267 268 271 272 271 269 269 273 270 255 248 250 251 250 246 246 244 245 247 248 251 256 264 273 280 274
250 247 246 250 254 255 250 242 245 254 256 256 256 253 250 251 259 269 271 261 260 270 272 269 268 269 265 254 252 253 251 254 254 252 252 251 248 247 250 254 260 263 264 264
232 251 250 257 258 257 248 241 241 248 249 249 251 254 254 258 268 271 270 259 251 260 265 264 266 268 259 248 245 248 250 257 258 257 250 248 248 247 249 253 258 261 261 258
225 236 240 242 250 257 259 255 249 247 247 248 250 247 246 248 257 267 272 275 276 277 270 260 258 260 255 247 242 241 242 247 248 249 251 248 249 246 247 252 255 259 264 261
236 240 245 246 244 242 248 255 255 253 253 248 243 248 253 253 256 265 271 272 273 279 278 264 262 258 255 252 249 238 238 244 250 251 250 257 260 250 247 251 254 255 257 255
250 249 250 257 256 244 251 257 256 261 260 247 246 255 263 264 260 263 265 265 260 256 266 274 274 266 260 256 252 237 234 239 245 251 252 252 255 256 253 253 254 255 254 252
261 260 257 256 261 260 254 251 251 260 264 252 246 254 263 270 268 260 263 276 275 258 259 270 268 262 259 258 257 241 236 239 244 250 254 255 257 257 257 256 257 256 254 253
258 259 262 263 262 270 270 256 247 254 262 261 258 258 263 270 271 266 254 254 268 274 273 265 262 265 266 266 247 243 243 243 246 249 251 253 255 257 258 256 256 256 253 250
261 260 262 263 261 267 278 272 258 254 256 258 258 258 257 260 260 263 277 266 257 270 270 261 267 272 275 267 248 247 249 248 249 250 250 250 251 254 256 256 255 253 251 249
263 263 263 267 268 272 277 277 271 264 260 263 261 256 255 264 269 253 252 272 279 279 272 271 276 278 279 264 250 249 250 251 252 252 251 250 249 249 251 253 253 250 246 244
264 264 264 264 265 265 265 271 277 274 270 269 267 261 250 242 250 265 264 264 271 277 274 275 279 279 274 259 253 252 252 250 250 249 247 248 247 246 248 248 248 247 245 243
262 263 263 257 255 260 262 264 267 271 272 276 278 271 261 252 251 258 264 263 263 271 270 268 269 271 263 258 256 255 254 259 262 256 248 247 247 246 246 245 245 245 244 241
264 263 266 270 265 254 250 251 256 263 260 260 270 272 266 262 260 260 261 264 266 265 263 263 262 259 258 257 257 256 254 252 250 249 248 246 245 245 244 242 243 242 239 235
Height
1523 1521 1520 1518 1516 1517 1518 1517 1518 1511 1510 1499 1497 1496 1495 1495 1495 1495 1494 1494 1494 1494 1494 1493 1493 1492 1492 1491 1490 1489 1488 1488 1487 1487 1486 1486 1485 1484 1483 1482 1482 1481 1480 1479
1522 1518 1519 1516 1511 1512 1511 1510 1509 1507 1502 1493 1493 1493 1493 1492 1492 1492 1492 1492 1492 1491 1491 1490 1490 1489 1488 1487 1486 1485 1484 1484 1483 1482 1481 1481 1480 1479 1478 1478 1477 1476 1475 1474
1523 1520 1515 1510 1500 1501 1502 1500 1501 1500 1493 1489 1490 1490 1489 1489 1489 1489 1489 1489 1489 1488 1488 1487 1486 1485 1484 1483 1482 1481 1480 1479 1478 1477 1476 1476 1475 1474 1473 1473 1472 1471 1470 1469
1524 1520 1514 1494 1490 1491 1493 1491 1491 1489 1487 1486 1486 1486 1486 1486 1486 1486 1486 1486 1486 1485 1484 1484 1483 1482 1480 1479 1478 1477 1476 1475 1474 1473 1472 1471 1470 1469 1469 1468 1467 1466 1465 1464
1524 1522 1509 1493 1488 1489 1491 1488 1484 1485 1484 1484 1484 1484 1483 1483 1483 1483 1483 1483 1482 1482 1481 1480 1479 1478 1476 1475 1474 1473 1471 1470 1469 1468 1467 1466 1465 1465 1464 1463 1462 1461 1460 1459
1522 1517 1502 1487 1485 1484 1487 1486 1480 1480 1480 1481 1483 1486 1482 1480 1480 1480 1480 1479 1478 1477 1476 1476 1475 1474 1472 1471 1469 1468 1467 1466 1465 1463 1462 1461 1460 1460 1459 1457 1456 1455 1454 1454
1518 1514 1499 1487 1484 1485 1490 1482 1477 1477 1478 1479 1480 1480 1479 1478 1477 1477 1476 1475 1474 1473 1473 1472 1471 1470 1468 1467 1465 1464 1463 1461 1460 1459 1458 1456 1455 1454 1453 1452 1451 1450 1449 1448
1512 1511 1497 1482 1483 1484 1480 1476 1475 1475 1476 1476 1476 1476 1475 1475 1474 1473 1472 1471 1470 1469 1468 1468 1467 1465 1464 1463 1461 1460 1458 1457 1455 1454 1453 1451 1450 1449 1448 1447 1446 1445 1443 1442
1495 1487 1479 1477 1476 1476 1475 1475 1474 1473 1473 1474 1473 1472 1472 1471 1470 1469 1468 1467 1466 1465 1464 1463 1462 1461 1459 1458 1457 1455 1453 1452 1451 1449 1448 1447 1445 1444 1443 1442 1440 1439 1438 1436
1488 1479 1475 1474 1473 1473 1473 1472 1471 1471 1471 1470 1469 1469 1468 1467 1466 1465 1464 1463 1462 1461 1459 1458 1458 1456 1455 1453 1452 1450 1449 1447 1446 1444 1443 1442 1440 1439 1437 1436 1435 1434 1432 1431
1481 1474 1471 1468 1468 1468 1468 1468 1468 1467 1467 1466 1465 1465 1464 1463 1462 1461 1460 1459 1458 1456 1455 1454 1453 1451 1450 1449 1447 1445 1444 1442 1441 1439 1438 1436 1435 1434 1432 1431 1430 1429 1427 1426
1470 1466 1467 1464 1464 1464 1463 1463 1463 1463 1462 1461 1461 1460 1459 1458 1457 1456 1455 1454 1453 1451 1450 1449 1448 1447 1445 1444 1442 1440 1438 1437 1436 1434 1432 1431 1429 1428 1427 1426 1425 1423 1422 1421
1461 1460 1460 1459 1459 1459 1458 1458 1458 1457 1457 1456 1455 1455 1454 1453 1452 1451 1450 1449 1448 1447 1445 1444 1443 1442 1440 1439 1437 1435 1434 1432 1430 1429 1427 1426 1424 1422 1421 1420 1419 1418 1416 1415
1456 1456 1455 1453 1453 1453 1453 1452 1452 1452 1451 1451 1450 1450 1449 1448 1447 1446 1445 1444 1443 1442 1440 1439 1438 1436 1435 1434 1432 1430 1428 1427 1425 1424 1422 1421 1419 1417 1416 1414 1412 1411 1411 1410
1450 1450 1450 1448 1448 1448 1447 1447 1446 1446 1446 1445 1445 1444 1443 1442 1442 1441 1440 1439 1438 1436 1435 1434 1432 1431 1430 1428 1426 1425 1423 1422 1420 1418 1417 1415 1414 1412 1411 1409 1407 1405 1405 1404
1444 1444 1444 1443 1442 1442 1442 1441 1441 1440 1440 1440 1439 1439 1438 1438 1437 1436 1435 1434 1432 1431 1430 1428 1427 1426 1424 1422 1421 1419 1417 1416 1415 1413 1411 1410 1408 1407 1405 1403 1402 1400 1399 1398
1439 1438 1438 1437 1437 1436 1436 1436 1436 1435 1435 1435 1434 1434 1433 1432 1432 1431 1430 1429 1427 1426 1424 1423 1421 1420 1418 1417 1415 1413 1412 1410 1409 1407 1406 1404 1403 1401 1400 1398 1396 1395 1394 1393
1433 1433 1433 1433 1432 1432 1431 1431 1431 1430 1430 1430 1430 1429 1428 1427 1426 1426 1425 1424 1422 1420 1419 1418 1416 1414 1412 1411 1409 1407 1406 1404 1403 1402 1400 1398 1397 1395 1394 1392 1390 1389 1387 1387
1428 1428 1428 1428 1428 1427 1427 1426 1426 1426 1425 1425 1424 1424 1423 1422 1421 1420 1419 1418 1416 1414 1413 1412 1410 1407 1406 1404 1403 1401 1400 1398 1397 1396 1394 1392 1391 1389 1388 1386 1385 1383 1382 1381
1425 1425 1425 1424 1424 1424 1423 1422 1422 1421 1421 1420 1419 1419 1418 1417 1416 1415 1413 1412 1410 1408 1406 1405 1403 1401 1399 1398 1397 1395 1394 1392 1391 1389 1388 1386 1385 1383 1382 1380 1379 1378 1376 1376
1422 1422 1421 1421 1420 1420 1419 1419 1418 1417 1416 1416 1415 1414 1413 1411 1411 1409 1407 1405 1404 1403 1401 1398 1397 1395 1393 1392 1390 1389 1388 1386 1385 1383 1382 1381 1379 1377 1376 1374 1373 1372 1371 1370
1419 1419 1418 1417 1417 1416 1415 1415 1414 1413 1412 1411 1410 1409 1408 1406 1405 1403 1401 1400 1398 1396 1394 1392 1390 1389 1387 1386 1384 1382 1381 1380 1379 1377 1376 1375 1373 1371 1370 1369 1367 1366 1365 1364
1416 1415 1415 1414 1413 1412 1411 1410 1409 1408 1407 1406 1405 1404 1402 1401 1399 1397 1395 1393 1392 1390 1387 1385 1384 1382 1381 1379 1378 1376 1375 1374 1372 1371 1370 1368 1367 1366 1364 1363 1362 1361 1360 1359
1412 1411 1410 1410 1409 1408 1406 1405 1404 1403 1402 1401 1399 1398 1397 1394 1392 1391 1389 1386 1385 1383 1380 1379 1377 1376 1374 1373 1371 1370 1369 1367 1366 1365 1364 1362 1361 1360 1358 1357 1356 1355 1354 1354
1407 1406 1406 1405 1403 1402 1401 1399 1398 1397 1396 1394 1392 1391 1390 1388 1386 1383 1382 1380 1378 1376 1374 1372 1371 1369 1368 1366 1365 1363 1362 1361 1360 1358 1357 1356 1355 1354 1352 1351 1350 1350 1349 1349
1402 1401 1400 1399 1398 1396 1395 1393 1391 1390 1388 1386 1385 1383 1382 1380 1378 1376 1374 1372 1371 1369 1367 1365 1364 1363 1361 1360 1358 1357 1356 1354 1353 1352 1351 1350 1349 1348 1347 1346 1345 1344 1344 1344
1396 1394 1393 1392 1391 1390 1388 1386 1384 1383 1381 1379 1377 1376 1374 1373 1371 1369 1367 1365 1364 1362 1360 1359 1358 1356 1355 1353 1352 1351 1349 1348 1347 1346 1345 1344 1343 1342 1341 1340 1340 1339 1339 1339